カタログに戻る

SECOR 8

EGRS 8

運用中科学PO
NORAD 2520·PAYLOAD·🇺🇸 United States

打ち上げ Oct 5, 1966 から Vandenberg Space Force Base

Loading…

次のパス (今後24時間)

TLE

最新Source: Space-Track

元期: Sep 14, 2026, 09:19 UTC

1 02520U 66089B   26257.38832791 -.00000006  00000-0 -39638-2 0  9990
2 02520  89.8569  30.9760 0014362 217.9966 141.9873  8.58893794389618

AllMySatでSECOR 8をリアルタイム追跡

Download on the App Store